TimeEST,TemperatureF,Dew PointF,Humidity,Sea Level PressureIn,VisibilityMPH,Wind Direction,Wind SpeedMPH,Gust SpeedMPH,PrecipitationIn,Events,Conditions,WindDirDegrees,DateUTC
12:53 AM,73.0,64.9,76,30.06,10.0,NNE,5.8,-,N/A,,Mostly Cloudy,30,2012-11-14 05:53:00
1:53 AM,73.0,64.9,76,30.05,10.0,NNE,6.9,-,N/A,,Scattered Clouds,20,2012-11-14 06:53:00
2:53 AM,73.0,64.9,76,30.04,10.0,NNE,4.6,-,N/A,,Mostly Cloudy,30,2012-11-14 07:53:00
3:53 AM,72.0,64.9,78,30.04,10.0,North,8.1,-,N/A,,Partly Cloudy,10,2012-11-14 08:53:00
4:53 AM,71.1,64.9,81,30.04,10.0,NNE,8.1,-,N/A,,Clear,20,2012-11-14 09:53:00
5:53 AM,71.1,64.9,81,30.05,10.0,NNE,8.1,-,N/A,,Clear,20,2012-11-14 10:53:00
6:53 AM,71.1,64.9,81,30.07,10.0,NNE,5.8,-,N/A,,Clear,20,2012-11-14 11:53:00
7:53 AM,73.0,66.0,79,30.09,10.0,North,5.8,-,N/A,,Clear,10,2012-11-14 12:53:00
8:53 AM,73.0,66.0,79,30.10,10.0,NNE,6.9,-,N/A,,Clear,20,2012-11-14 13:53:00
9:53 AM,75.9,66.0,71,30.10,10.0,North,8.1,-,N/A,,Clear,10,2012-11-14 14:53:00
10:53 AM,78.1,66.9,68,30.10,10.0,North,6.9,-,N/A,,Clear,360,2012-11-14 15:53:00
11:53 AM,79.0,66.9,66,30.09,10.0,North,6.9,-,N/A,,Clear,360,2012-11-14 16:53:00
12:53 PM,80.1,66.9,64,30.07,10.0,North,6.9,-,N/A,,Clear,350,2012-11-14 17:53:00
1:53 PM,79.0,66.0,64,30.05,10.0,North,6.9,-,N/A,,Clear,350,2012-11-14 18:53:00
2:53 PM,78.1,66.9,68,30.04,10.0,Variable,4.6,-,N/A,,Clear,0,2012-11-14 19:53:00
3:53 PM,75.0,66.9,76,30.05,10.0,NNW,8.1,-,N/A,,Partly Cloudy,340,2012-11-14 20:53:00
4:53 PM,75.0,66.9,76,30.05,10.0,North,9.2,-,N/A,,Mostly Cloudy,10,2012-11-14 21:53:00
5:20 PM,73.4,66.2,78,30.05,2.5,NNE,13.8,24.2,0.05,Rain,Rain,30,2012-11-14 22:20:00
5:28 PM,73.4,68.0,83,30.05,2.0,NE,11.5,-,0.08,Rain,Rain,50,2012-11-14 22:28:00
5:35 PM,73.4,68.0,83,30.05,8.0,ENE,12.7,-,0.08,Rain,Light Rain,60,2012-11-14 22:35:00
5:53 PM,73.9,66.9,79,30.05,10.0,ENE,8.1,-,0.08,,Mostly Cloudy,60,2012-11-14 22:53:00
6:53 PM,73.9,64.9,73,30.06,10.0,ENE,6.9,-,N/A,,Partly Cloudy,60,2012-11-14 23:53:00
7:53 PM,73.0,64.0,73,30.07,10.0,NE,6.9,-,N/A,,Clear,40,2012-11-15 00:53:00
8:53 PM,73.0,66.0,79,30.09,10.0,North,4.6,-,N/A,,Mostly Cloudy,360,2012-11-15 01:53:00
9:53 PM,73.0,66.0,79,30.09,10.0,NNE,4.6,-,N/A,,Mostly Cloudy,20,2012-11-15 02:53:00
10:53 PM,73.0,66.9,81,30.08,10.0,NNE,6.9,-,N/A,,Clear,30,2012-11-15 03:53:00
11:53 PM,73.0,66.0,79,30.07,10.0,NNE,5.8,-,N/A,,Clear,20,2012-11-15 04:53:00